| time (UTC) | temp F | wind direction | speed knots | gust knots | rain 1hr in | rain 24hr in | rain mn in | humidity % | barometer mb |
| 20260903222327 | 78 | 68 | 2.6 | 4.3 | 0.00 | 0.00 | 0.00 | 72 | 1008.9 |
| 20260903221821 | 78 | 101 | 3.5 | 4.3 | 0.00 | 0.00 | 0.00 | 73 | 1008.9 |
| 20260903221320 | 77 | 108 | 1.7 | 1.7 | 0.00 | 0.00 | 0.00 | 73 | 1008.9 |
| 20260903220818 | 77 | 107 | 0.9 | 0.9 | 0.00 | 0.00 | 0.00 | 74 | 1008.8 |
| 20260903220312 | 76 | 106 | 2.6 | 2.6 | 0.00 | 0.00 | 0.00 | 74 | 1008.8 |
| 20260903215811 | 77 | 111 | 3.5 | 5.2 | 0.00 | 0.00 | 0.00 | 75 | 1008.8 |
| 20260903215308 | 77 | 39 | 4.3 | 5.2 | 0.00 | 0.00 | 0.00 | 75 | 1008.7 |
| 20260903214805 | 77 | 91 | 1.7 | 1.7 | 0.00 | 0.00 | 0.00 | 76 | 1008.6 |
| 20260903214301 | 77 | 106 | 2.6 | 4.3 | 0.00 | 0.00 | 0.00 | 76 | 1008.7 |
| 20260903213755 | 77 | 78 | 4.3 | 6.1 | 0.00 | 0.00 | 0.00 | 76 | 1008.8 |
| 20260903213251 | 76 | 98 | 3.5 | 4.3 | 0.00 | 0.00 | 0.00 | 76 | 1008.7 |
| 20260903212741 | 77 | 84 | 3.5 | 6.1 | 0.00 | 0.00 | 0.00 | 76 | 1008.8 |
| 20260903212238 | 76 | 104 | 2.6 | 4.3 | 0.00 | 0.00 | 0.00 | 77 | 1008.7 |
| 20260903211736 | 76 | 88 | 3.5 | 4.3 | 0.00 | 0.00 | 0.00 | 77 | 1008.6 |
| 20260903211234 | 75 | 60 | 2.6 | 2.6 | 0.00 | 0.00 | 0.00 | 78 | 1008.6 |
| 20260903210729 | 76 | 31 | 2.6 | 4.3 | 0.00 | 0.00 | 0.00 | 77 | 1008.7 |
| 20260903210225 | 75 | 50 | 3.5 | 5.2 | 0.00 | 0.00 | 0.00 | 79 | 1008.5 |
| 20260903205718 | 75 | 28 | 5.2 | 6.1 | 0.00 | 0.00 | 0.00 | 79 | 1008.6 |
| 20260903205217 | 75 | 62 | 3.5 | 5.2 | 0.00 | 0.00 | 0.00 | 80 | 1008.7 |
| 20260903204713 | 75 | 20 | 3.5 | 4.3 | 0.00 | 0.00 | 0.00 | 79 | 1008.8 |
| 20260903204210 | 74 | 77 | 3.5 | 6.1 | 0.00 | 0.00 | 0.00 | 79 | 1008.7 |
| 20260903203704 | 73 | 80 | 2.6 | 4.3 | 0.00 | 0.00 | 0.00 | 81 | 1008.7 |
| 20260903203200 | 72 | 48 | 5.2 | 5.2 | 0.00 | 0.00 | 0.00 | 82 | 1008.7 |
| 20260903202654 | 72 | 38 | 4.3 | 6.1 | 0.00 | 0.00 | 0.00 | 82 | 1009.0 |
| 20260903202150 | 72 | 58 | 2.6 | 4.3 | 0.00 | 0.00 | 0.00 | 82 | 1009.3 |
| 20260903201643 | 73 | 28 | 2.6 | 2.6 | 0.00 | 0.00 | 0.00 | 82 | 1008.8 |
| 20260903201138 | 72 | 44 | 4.3 | 6.1 | 0.00 | 0.00 | 0.00 | 83 | 1008.7 |
| 20260903200633 | 72 | 27 | 3.5 | 5.2 | 0.00 | 0.00 | 0.00 | 84 | 1008.7 |
| 20260903200129 | 71 | 48 | 3.5 | 5.2 | 0.00 | 0.00 | 0.00 | 83 | 1008.6 |
| 20260903195624 | 71 | 28 | 4.3 | 5.2 | 0.00 | 0.00 | 0.00 | 84 | 1008.8 |
| 20260903195120 | 71 | 46 | 2.6 | 4.3 | 0.00 | 0.00 | 0.00 | 84 | 1008.5 |
| 20260903194614 | 71 | 74 | 1.7 | 2.6 | 0.00 | 0.00 | 0.00 | 84 | 1008.3 |
| 20260903194114 | 71 | 31 | 4.3 | 5.2 | 0.00 | 0.00 | 0.00 | 84 | 1008.1 |
| 20260903193611 | 71 | 48 | 4.3 | 7.0 | 0.00 | 0.00 | 0.00 | 84 | 1008.3 |
| 20260903193106 | 71 | 40 | 2.6 | 5.2 | 0.00 | 0.00 | 0.00 | 85 | 1008.7 |
| 20260903192603 | 71 | 32 | 4.3 | 7.0 | 0.00 | 0.00 | 0.00 | 85 | 1008.4 |
| 20260903192103 | 71 | 30 | 4.3 | 5.2 | 0.00 | 0.00 | 0.00 | 84 | 1008.7 |
| 20260903191559 | 71 | 35 | 1.7 | 2.6 | 0.00 | 0.00 | 0.00 | 86 | 1008.6 |
| 20260903191054 | 70 | 31 | 3.5 | 4.3 | 0.00 | 0.00 | 0.00 | 86 | 1008.9 |
| 20260903190553 | 70 | 27 | 2.6 | 2.6 | 0.00 | 0.00 | 0.00 | 86 | 1008.9 |
| 20260903190053 | 71 | 326 | 3.5 | 4.3 | 0.00 | 0.00 | 0.00 | 85 | 1009.3 |
| 20260903185548 | 71 | 299 | 2.6 | 2.6 | 0.00 | 0.00 | 0.00 | 85 | 1009.0 |
| 20260903185044 | 71 | 31 | 0.9 | 1.7 | 0.00 | 0.00 | 0.00 | 86 | 1008.8 |
| 20260903184540 | 71 | 43 | 2.6 | 4.3 | 0.00 | 0.00 | 0.00 | 86 | 1008.7 |
| 20260903184035 | 71 | 26 | 1.7 | 1.7 | 0.00 | 0.00 | 0.00 | 86 | 1008.7 |
| 20260903183534 | 71 | 35 | 0.9 | 0.9 | 0.00 | 0.00 | 0.00 | 85 | 1008.7 |
| 20260903183029 | 71 | 45 | 1.7 | 1.7 | 0.00 | 0.00 | 0.00 | 86 | 1008.9 |
| 20260903182527 | 70 | 124 | 2.6 | 2.6 | 0.00 | 0.00 | 0.00 | 86 | 1008.8 |
| 20260903182024 | 70 | 42 | 2.6 | 2.6 | 0.00 | 0.00 | 0.00 | 86 | 1008.4 |
| 20260903181517 | 71 | 55 | 4.3 | 5.2 | 0.00 | 0.00 | 0.00 | 86 | 1008.2 |
| 20260903181017 | 70 | 49 | 4.3 | 5.2 | 0.00 | 0.00 | 0.00 | 87 | 1008.2 |
| 20260903180513 | 69 | 60 | 2.6 | 2.6 | 0.00 | 0.00 | 0.00 | 88 | 1008.3 |
| 20260903180007 | 69 | 52 | 2.6 | 4.3 | 0.00 | 0.00 | 0.00 | 89 | 1008.1 |
| 20260903175506 | 68 | 48 | 4.3 | 5.2 | 0.00 | 0.00 | 0.00 | 89 | 1008.2 |
| 20260903175005 | 68 | 74 | 5.2 | 6.1 | 0.00 | 0.00 | 0.00 | 90 | 1008.2 |
| 20260903174500 | 67 | 44 | 3.5 | 4.3 | 0.00 | 0.00 | 0.00 | 91 | 1008.3 |
| 20260903174000 | 66 | 32 | 4.3 | 5.2 | 0.00 | 0.00 | 0.00 | 92 | 1008.0 |
| 20260903173455 | 66 | 39 | 5.2 | 7.0 | 0.00 | 0.00 | 0.00 | 92 | 1008.1 |
| 20260903172950 | 66 | 47 | 7.0 | 8.7 | 0.00 | 0.00 | 0.00 | 93 | 1007.8 |
| 20260903172445 | 66 | 37 | 6.1 | 9.6 | 0.00 | 0.00 | 0.00 | 93 | 1007.8 |
| 20260903171941 | 65 | 47 | 7.0 | 8.7 | 0.00 | 0.00 | 0.00 | 93 | 1007.5 |
| 20260903171431 | 65 | 13 | 4.3 | 6.1 | 0.00 | 0.00 | 0.00 | 92 | 1007.8 |
| 20260903170931 | 66 | 24 | 5.2 | 7.0 | 0.00 | 0.00 | 0.00 | 91 | 1007.8 |
| 20260903170425 | 67 | 12 | 5.2 | 6.1 | 0.00 | 0.00 | 0.00 | 90 | 1007.8 |
| 20260903165924 | 69 | 22 | 3.5 | 5.2 | 0.00 | 0.00 | 0.00 | 90 | 1007.4 |
| 20260903165418 | 68 | 43 | 1.7 | 1.7 | 0.00 | 0.00 | 0.00 | 90 | 1007.5 |
| 20260903164913 | 69 | 356 | 1.7 | 1.7 | 0.00 | 0.00 | 0.00 | 90 | 1007.5 |
| 20260903164408 | 68 | 65 | 1.7 | 1.7 | 0.00 | 0.00 | 0.00 | 90 | 1007.6 |
| 20260903163908 | 69 | 33 | 1.7 | 1.7 | 0.00 | 0.00 | 0.00 | 89 | 1007.5 |
| 20260903163404 | 68 | 22 | 2.6 | 2.6 | 0.00 | 0.00 | 0.00 | 89 | 1007.5 |
| 20260903162900 | 68 | 32 | 1.7 | 1.7 | 0.00 | 0.00 | 0.00 | 89 | 1007.6 |
| 20260903162356 | 69 | 60 | 1.7 | 1.7 | 0.00 | 0.00 | 0.00 | 89 | 1007.4 |
| 20260903161852 | 69 | 43 | 2.6 | 2.6 | 0.00 | 0.00 | 0.00 | 89 | 1007.1 |
| 20260903161347 | 69 | 63 | 2.6 | 2.6 | 0.00 | 0.00 | 0.00 | 89 | 1006.8 |
| 20260903160843 | 68 | 60 | 4.3 | 5.2 | 0.00 | 0.00 | 0.00 | 89 | 1006.8 |
| 20260903160341 | 68 | 55 | 2.6 | 2.6 | 0.00 | 0.00 | 0.00 | 89 | 1006.8 |
| 20260903155840 | 68 | 51 | 2.6 | 4.3 | 0.00 | 0.00 | 0.00 | 89 | 1006.8 |
| 20260903155335 | 68 | 33 | 4.3 | 5.2 | 0.00 | 0.00 | 0.00 | 89 | 1006.6 |
| 20260903154831 | 68 | 25 | 6.1 | 7.0 | 0.00 | 0.00 | 0.00 | 89 | 1006.8 |
| 20260903154327 | 68 | 75 | 2.6 | 2.6 | 0.00 | 0.00 | 0.00 | 89 | 1006.6 |
| 20260903153822 | 68 | 59 | 3.5 | 4.3 | 0.00 | 0.00 | 0.00 | 89 | 1006.4 |
| 20260903153318 | 68 | 97 | 2.6 | 4.3 | 0.00 | 0.00 | 0.00 | 89 | 1006.3 |
| 20260903152815 | 68 | 69 | 4.3 | 5.2 | 0.00 | 0.00 | 0.00 | 89 | 1006.2 |
| 20260903152310 | 67 | 88 | 3.5 | 4.3 | 0.00 | 0.00 | 0.00 | 90 | 1006.2 |
| 20260903151810 | 67 | 62 | 3.5 | 5.2 | 0.00 | 0.00 | 0.00 | 90 | 1006.2 |
| 20260903151305 | 67 | 105 | 4.3 | 4.3 | 0.00 | 0.00 | 0.00 | 90 | 1006.3 |
| 20260903150759 | 67 | 52 | 2.6 | 4.3 | 0.00 | 0.00 | 0.00 | 90 | 1006.4 |
| 20260903150253 | 67 | 74 | 5.2 | 7.8 | 0.00 | 0.00 | 0.00 | 90 | 1006.5 |
| 20260903145750 | 67 | 79 | 4.3 | 6.1 | 0.00 | 0.00 | 0.00 | 90 | 1006.7 |
| 20260903145245 | 66 | 68 | 3.5 | 6.1 | 0.00 | 0.00 | 0.00 | 90 | 1006.7 |
| 20260903144743 | 66 | 71 | 2.6 | 2.6 | 0.00 | 0.00 | 0.00 | 91 | 1006.8 |
| 20260903144239 | 66 | 50 | 7.0 | 7.8 | 0.00 | 0.00 | 0.00 | 90 | 1006.9 |
| 20260903143735 | 66 | 64 | 4.3 | 6.1 | 0.00 | 0.00 | 0.00 | 90 | 1007.0 |
| 20260903143231 | 66 | 53 | 2.6 | 5.2 | 0.00 | 0.00 | 0.00 | 90 | 1007.1 |
| 20260903142727 | 66 | 45 | 5.2 | 6.1 | 0.00 | 0.00 | 0.00 | 90 | 1007.1 |
| 20260903142223 | 66 | 28 | 4.3 | 6.1 | 0.00 | 0.00 | 0.00 | 90 | 1007.2 |
| 20260903141717 | 66 | 56 | 4.3 | 5.2 | 0.00 | 0.00 | 0.00 | 89 | 1007.5 |
| 20260903141213 | 66 | 32 | 2.6 | 2.6 | 0.00 | 0.00 | 0.00 | 89 | 1007.6 |
| 20260903140708 | 66 | 42 | 3.5 | 4.3 | 0.00 | 0.00 | 0.00 | 89 | 1007.8 |
| 20260903140203 | 65 | 62 | 2.6 | 2.6 | 0.00 | 0.00 | 0.00 | 89 | 1007.8 |
| 20260903135659 | 65 | 53 | 1.7 | 1.7 | 0.00 | 0.00 | 0.00 | 89 | 1007.8 |
| 20260903135154 | 65 | 47 | 2.6 | 2.6 | 0.00 | 0.00 | 0.00 | 89 | 1008.0 |
| 20260903134653 | 64 | 13 | 1.7 | 1.7 | 0.00 | 0.00 | 0.00 | 89 | 1008.0 |
| 20260903134149 | 64 | 45 | 1.7 | 1.7 | 0.00 | 0.00 | 0.00 | 89 | 1007.7 |
| 20260903133646 | 64 | 58 | 0.0 | 0.9 | 0.00 | 0.00 | 0.00 | 89 | 1007.6 |
| 20260903133142 | 64 | 86 | 1.7 | 1.7 | 0.00 | 0.00 | 0.00 | 89 | 1007.4 |
| 20260903132636 | 64 | 56 | 1.7 | 1.7 | 0.00 | 0.00 | 0.00 | 89 | 1007.1 |
| 20260903132131 | 64 | 96 | 0.9 | 0.9 | 0.00 | 0.00 | 0.00 | 89 | 1007.5 |
| 20260903131626 | 64 | 155 | 3.5 | 4.3 | 0.00 | 0.00 | 0.00 | 89 | 1007.0 |
| 20260903131125 | 64 | 102 | 5.2 | 7.0 | 0.00 | 0.00 | 0.00 | 89 | 1006.7 |
| 20260903130620 | 63 | 79 | 7.0 | 8.7 | 0.00 | 0.00 | 0.00 | 89 | 1006.6 |
| 20260903130114 | 63 | 74 | 8.7 | 9.6 | 0.00 | 0.00 | 0.00 | 89 | 1006.2 |
| 20260903125613 | 63 | 73 | 9.6 | 11.3 | 0.00 | 0.00 | 0.00 | 89 | 1006.2 |
| 20260903125103 | 63 | 56 | 7.8 | 9.6 | 0.00 | 0.00 | 0.00 | 89 | 1006.1 |
| 20260903124602 | 63 | 84 | 9.6 | 11.3 | 0.00 | 0.00 | 0.00 | 89 | 1006.1 |
| 20260903124057 | 63 | 70 | 7.8 | 9.6 | 0.00 | 0.00 | 0.00 | 89 | 1006.4 |
| 20260903123556 | 63 | 110 | 6.1 | 7.0 | 0.00 | 0.00 | 0.00 | 88 | 1006.2 |
| 20260903123054 | 63 | 96 | 7.0 | 8.7 | 0.00 | 0.00 | 0.00 | 89 | 1006.3 |
| 20260903122549 | 63 | 78 | 7.8 | 9.6 | 0.00 | 0.00 | 0.00 | 88 | 1006.1 |
| 20260903122048 | 63 | 95 | 6.1 | 7.0 | 0.00 | 0.00 | 0.00 | 88 | 1006.4 |
| 20260903121543 | 62 | 126 | 7.0 | 7.8 | 0.00 | 0.00 | 0.00 | 88 | 1006.4 |
| 20260903121039 | 62 | 100 | 6.1 | 8.7 | 0.00 | 0.00 | 0.00 | 88 | 1006.3 |
| 20260903120538 | 62 | 83 | 6.1 | 8.7 | 0.00 | 0.00 | 0.00 | 87 | 1006.3 |
| 20260903120033 | 62 | 114 | 4.3 | 5.2 | 0.00 | 0.00 | 0.00 | 87 | 1006.4 |
| 20260903115531 | 62 | 96 | 5.2 | 7.0 | 0.00 | 0.00 | 0.00 | 87 | 1006.4 |
| 20260903115026 | 62 | 102 | 5.2 | 7.0 | 0.00 | 0.00 | 0.00 | 86 | 1006.3 |
| 20260903114521 | 62 | 78 | 7.0 | 8.7 | 0.00 | 0.00 | 0.00 | 86 | 1006.5 |
| 20260903114017 | 62 | 75 | 5.2 | 7.0 | 0.00 | 0.00 | 0.00 | 86 | 1006.7 |
| 20260903113513 | 62 | 85 | 4.3 | 5.2 | 0.00 | 0.00 | 0.00 | 85 | 1006.8 |
| 20260903113009 | 62 | 87 | 3.5 | 5.2 | 0.00 | 0.00 | 0.00 | 85 | 1007.0 |
| 20260903112503 | 62 | 57 | 3.5 | 4.3 | 0.00 | 0.00 | 0.00 | 85 | 1007.0 |
| 20260903112003 | 62 | 83 | 3.5 | 5.2 | 0.00 | 0.00 | 0.00 | 84 | 1006.8 |
| 20260903111457 | 62 | 86 | 2.6 | 2.6 | 0.00 | 0.00 | 0.00 | 84 | 1006.8 |
| 20260903110954 | 62 | 93 | 2.6 | 2.6 | 0.00 | 0.00 | 0.00 | 84 | 1006.8 |
| 20260903110449 | 62 | 105 | 4.3 | 5.2 | 0.00 | 0.00 | 0.00 | 84 | 1006.5 |
| 20260903105943 | 62 | 66 | 6.1 | 7.8 | 0.00 | 0.00 | 0.00 | 83 | 1006.2 |
| 20260903105439 | 62 | 92 | 4.3 | 5.2 | 0.00 | 0.00 | 0.00 | 83 | 1006.4 |
| 20260903104938 | 62 | 134 | 5.2 | 7.0 | 0.00 | 0.00 | 0.00 | 82 | 1006.5 |
| 20260903104438 | 63 | 108 | 4.3 | 6.1 | 0.00 | 0.00 | 0.00 | 82 | 1006.6 |
| 20260903103935 | 63 | 83 | 7.8 | 8.7 | 0.00 | 0.00 | 0.00 | 82 | 1006.4 |
| 20260903103430 | 62 | 79 | 4.3 | 6.1 | 0.00 | 0.00 | 0.00 | 82 | 1006.7 |
| 20260903102926 | 63 | 98 | 6.1 | 7.0 | 0.00 | 0.00 | 0.00 | 81 | 1006.7 |
| 20260903102421 | 63 | 114 | 6.1 | 7.0 | 0.00 | 0.00 | 0.00 | 80 | 1006.8 |
| 20260903101920 | 63 | 80 | 3.5 | 6.1 | 0.00 | 0.00 | 0.00 | 80 | 1006.7 |
| 20260903101415 | 63 | 73 | 7.8 | 8.7 | 0.00 | 0.00 | 0.00 | 80 | 1006.7 |
| 20260903100910 | 63 | 91 | 5.2 | 7.0 | 0.00 | 0.00 | 0.00 | 80 | 1006.5 |
| 20260903100406 | 63 | 73 | 7.8 | 11.3 | 0.00 | 0.00 | 0.00 | 79 | 1006.7 |
| 20260903095902 | 64 | 90 | 7.0 | 9.6 | 0.00 | 0.00 | 0.00 | 78 | 1006.6 |
| 20260903095356 | 64 | 99 | 5.2 | 6.1 | 0.00 | 0.00 | 0.00 | 78 | 1006.7 |
| 20260903094851 | 64 | 96 | 7.0 | 7.8 | 0.00 | 0.00 | 0.00 | 77 | 1006.9 |
| 20260903094346 | 64 | 82 | 8.7 | 11.3 | 0.00 | 0.00 | 0.00 | 77 | 1006.9 |
| 20260903093842 | 64 | 134 | 4.3 | 4.3 | 0.00 | 0.00 | 0.00 | 77 | 1007.0 |
| 20260903093337 | 64 | 77 | 5.2 | 5.2 | 0.00 | 0.00 | 0.00 | 77 | 1006.9 |
| 20260903092832 | 64 | 120 | 9.6 | 13.0 | 0.00 | 0.00 | 0.00 | 77 | 1007.0 |
| 20260903092327 | 64 | 102 | 8.7 | 9.6 | 0.00 | 0.00 | 0.00 | 76 | 1006.8 |
| 20260903091825 | 64 | 77 | 9.6 | 12.2 | 0.00 | 0.00 | 0.00 | 76 | 1006.9 |
| 20260903091319 | 64 | 60 | 8.7 | 12.2 | 0.00 | 0.00 | 0.00 | 76 | 1006.9 |
| 20260903090815 | 64 | 57 | 6.1 | 8.7 | 0.00 | 0.00 | 0.00 | 76 | 1006.7 |
| 20260903090315 | 64 | 128 | 9.6 | 13.0 | 0.00 | 0.00 | 0.00 | 76 | 1007.0 |
| 20260903085813 | 64 | 111 | 9.6 | 13.0 | 0.00 | 0.00 | 0.00 | 75 | 1007.0 |
| 20260903085308 | 64 | 70 | 9.6 | 12.2 | 0.00 | 0.00 | 0.00 | 75 | 1007.2 |
| 20260903084806 | 64 | 88 | 7.0 | 8.7 | 0.00 | 0.00 | 0.00 | 75 | 1007.5 |
| 20260903084300 | 64 | 105 | 7.8 | 9.6 | 0.00 | 0.00 | 0.00 | 75 | 1007.4 |
| 20260903083755 | 64 | 83 | 9.6 | 12.2 | 0.00 | 0.00 | 0.00 | 75 | 1007.2 |
| 20260903083250 | 64 | 93 | 7.0 | 7.8 | 0.00 | 0.00 | 0.00 | 74 | 1007.6 |
| 20260903082749 | 65 | 95 | 5.2 | 7.8 | 0.00 | 0.00 | 0.00 | 74 | 1007.7 |
| 20260903082245 | 65 | 73 | 6.1 | 7.8 | 0.00 | 0.00 | 0.00 | 73 | 1007.7 |
| 20260903081745 | 65 | 90 | 7.8 | 9.6 | 0.00 | 0.00 | 0.00 | 72 | 1007.7 |
| 20260903081241 | 66 | 103 | 7.0 | 7.8 | 0.00 | 0.00 | 0.00 | 72 | 1007.8 |
| 20260903080737 | 66 | 79 | 10.4 | 13.0 | 0.00 | 0.00 | 0.00 | 72 | 1007.8 |
| 20260903080235 | 66 | 73 | 6.1 | 7.8 | 0.00 | 0.00 | 0.00 | 71 | 1007.7 |
| 20260903075734 | 66 | 78 | 12.2 | 14.8 | 0.00 | 0.00 | 0.00 | 70 | 1007.7 |
| 20260903075229 | 66 | 89 | 8.7 | 12.2 | 0.00 | 0.00 | 0.00 | 70 | 1008.3 |
| 20260903074728 | 66 | 93 | 6.1 | 7.8 | 0.00 | 0.00 | 0.00 | 70 | 1008.3 |
| 20260903074223 | 66 | 81 | 10.4 | 13.0 | 0.00 | 0.00 | 0.00 | 70 | 1008.7 |
| 20260903073718 | 67 | 50 | 6.1 | 7.8 | 0.00 | 0.00 | 0.00 | 70 | 1008.5 |
| 20260903073214 | 67 | 66 | 7.8 | 11.3 | 0.00 | 0.00 | 0.00 | 69 | 1008.7 |
| 20260903072709 | 67 | 82 | 7.0 | 7.8 | 0.00 | 0.00 | 0.00 | 68 | 1008.4 |
| 20260903072206 | 68 | 78 | 7.0 | 9.6 | 0.00 | 0.00 | 0.00 | 68 | 1008.7 |
| 20260903071702 | 68 | 74 | 7.0 | 11.3 | 0.00 | 0.00 | 0.00 | 68 | 1008.9 |
| 20260903071157 | 68 | 80 | 4.3 | 5.2 | 0.00 | 0.00 | 0.00 | 67 | 1009.0 |
| 20260903070657 | 68 | 82 | 7.0 | 8.7 | 0.00 | 0.00 | 0.00 | 67 | 1009.0 |
| 20260903070153 | 68 | 75 | 7.0 | 8.7 | 0.00 | 0.00 | 0.00 | 67 | 1009.2 |
| 20260903065647 | 68 | 105 | 7.8 | 8.7 | 0.00 | 0.00 | 0.00 | 66 | 1009.3 |
| 20260903065147 | 68 | 93 | 10.4 | 13.9 | 0.00 | 0.00 | 0.00 | 67 | 1009.4 |
| 20260903064646 | 68 | 85 | 6.1 | 8.7 | 0.00 | 0.00 | 0.00 | 67 | 1009.3 |
| 20260903064142 | 68 | 87 | 8.7 | 9.6 | 0.00 | 0.00 | 0.00 | 68 | 1009.5 |
| 20260903063638 | 68 | 74 | 6.1 | 7.8 | 0.00 | 0.00 | 0.00 | 68 | 1009.6 |
| 20260903063138 | 67 | 73 | 6.1 | 7.0 | 0.00 | 0.00 | 0.00 | 69 | 1009.5 |
| 20260903062634 | 67 | 117 | 6.1 | 7.8 | 0.00 | 0.00 | 0.00 | 70 | 1009.7 |
| 20260903062129 | 67 | 70 | 7.0 | 8.7 | 0.00 | 0.00 | 0.00 | 70 | 1009.7 |
| 20260903061624 | 67 | 91 | 6.1 | 7.0 | 0.00 | 0.00 | 0.00 | 70 | 1009.8 |
| 20260903061123 | 68 | 131 | 6.1 | 7.0 | 0.00 | 0.00 | 0.00 | 69 | 1009.6 |
| 20260903060618 | 68 | 84 | 6.1 | 7.0 | 0.00 | 0.00 | 0.00 | 69 | 1009.6 |
| 20260903060114 | 68 | 81 | 7.0 | 8.7 | 0.00 | 0.00 | 0.00 | 69 | 1009.8 |
| 20260903055611 | 68 | 81 | 6.1 | 7.0 | 0.00 | 0.00 | 0.00 | 69 | 1010.1 |
| 20260903055109 | 68 | 93 | 6.1 | 7.8 | 0.00 | 0.00 | 0.00 | 69 | 1010.1 |
| 20260903054604 | 69 | 87 | 6.1 | 7.0 | 0.00 | 0.00 | 0.00 | 68 | 1010.0 |
| 20260903054101 | 69 | 104 | 6.1 | 7.8 | 0.00 | 0.00 | 0.00 | 68 | 1009.8 |
| 20260903053556 | 69 | 104 | 7.8 | 9.6 | 0.00 | 0.00 | 0.00 | 68 | 1009.9 |
| 20260903053052 | 69 | 113 | 7.0 | 7.8 | 0.00 | 0.00 | 0.00 | 68 | 1009.9 |
| 20260903052548 | 69 | 59 | 7.0 | 7.8 | 0.00 | 0.00 | 0.00 | 68 | 1010.0 |
| 20260903052043 | 69 | 113 | 5.2 | 6.1 | 0.00 | 0.00 | 0.00 | 69 | 1010.2 |
| 20260903051542 | 68 | 104 | 7.0 | 8.7 | 0.00 | 0.00 | 0.00 | 69 | 1010.2 |
| 20260903051038 | 68 | 63 | 6.1 | 8.7 | 0.00 | 0.00 | 0.00 | 70 | 1010.2 |
| 20260903050537 | 68 | 83 | 7.8 | 7.8 | 0.00 | 0.00 | 0.00 | 71 | 1010.2 |
| 20260903050033 | 68 | 80 | 5.2 | 6.1 | 0.00 | 0.00 | 0.00 | 71 | 1010.4 |
| 20260903045532 | 68 | 94 | 7.8 | 9.6 | 0.00 | 0.00 | 0.00 | 72 | 1010.3 |
| 20260903045029 | 67 | 64 | 6.1 | 7.8 | 0.00 | 0.00 | 0.00 | 72 | 1010.3 |
| 20260903044525 | 68 | 57 | 7.0 | 8.7 | 0.00 | 0.00 | 0.00 | 72 | 1010.2 |
| 20260903044020 | 68 | 76 | 7.0 | 7.8 | 0.00 | 0.00 | 0.00 | 71 | 1010.3 |
| 20260903043516 | 68 | 103 | 9.6 | 11.3 | 0.00 | 0.00 | 0.00 | 70 | 1010.0 |
| 20260903043015 | 68 | 57 | 7.0 | 8.7 | 0.00 | 0.00 | 0.00 | 70 | 1010.2 |
| 20260903042510 | 68 | 84 | 6.1 | 7.8 | 0.00 | 0.00 | 0.00 | 70 | 1010.3 |
| 20260903042006 | 68 | 59 | 7.0 | 9.6 | 0.00 | 0.00 | 0.00 | 71 | 1010.5 |
| 20260903041502 | 67 | 58 | 7.0 | 8.7 | 0.00 | 0.00 | 0.00 | 71 | 1010.3 |
| 20260903040957 | 67 | 75 | 6.1 | 8.7 | 0.00 | 0.00 | 0.00 | 71 | 1010.4 |
| 20260903040456 | 67 | 58 | 4.3 | 5.2 | 0.00 | 0.00 | 0.00 | 71 | 1010.5 |
| 20260903035953 | 67 | 71 | 7.0 | 7.8 | 0.00 | 0.00 | 0.00 | 71 | 1010.5 |
| 20260903035448 | 67 | 67 | 8.7 | 11.3 | 0.00 | 0.00 | 0.00 | 71 | 1010.4 |
| 20260903034943 | 68 | 94 | 7.8 | 11.3 | 0.00 | 0.00 | 0.00 | 71 | 1010.7 |
| 20260903034438 | 68 | 72 | 7.0 | 8.7 | 0.00 | 0.00 | 0.00 | 70 | 1010.5 |
| 20260903033933 | 68 | 75 | 5.2 | 7.0 | 0.00 | 0.00 | 0.00 | 70 | 1010.6 |
| 20260903033428 | 68 | 54 | 6.1 | 7.0 | 0.00 | 0.00 | 0.00 | 69 | 1010.7 |
| 20260903032923 | 68 | 62 | 6.1 | 7.8 | 0.00 | 0.00 | 0.00 | 70 | 1010.7 |
| 20260903032419 | 68 | 62 | 7.0 | 7.0 | 0.00 | 0.00 | 0.00 | 69 | 1010.9 |
| 20260903031914 | 68 | 70 | 7.0 | 9.6 | 0.00 | 0.00 | 0.00 | 68 | 1010.7 |
| 20260903031413 | 68 | 76 | 7.8 | 8.7 | 0.00 | 0.00 | 0.00 | 68 | 1010.9 |
| 20260903030908 | 69 | 90 | 6.1 | 7.8 | 0.00 | 0.00 | 0.00 | 67 | 1010.7 |
| 20260903030405 | 69 | 93 | 4.3 | 5.2 | 0.00 | 0.00 | 0.00 | 67 | 1010.8 |
| 20260903025901 | 69 | 70 | 7.0 | 7.8 | 0.00 | 0.00 | 0.00 | 67 | 1010.7 |
| 20260903025356 | 69 | 79 | 5.2 | 7.0 | 0.00 | 0.00 | 0.00 | 67 | 1010.9 |
| 20260903024855 | 69 | 84 | 5.2 | 6.1 | 0.00 | 0.00 | 0.00 | 67 | 1010.8 |
| 20260903024350 | 70 | 71 | 5.2 | 7.0 | 0.00 | 0.00 | 0.00 | 66 | 1010.9 |
| 20260903023845 | 70 | 55 | 5.2 | 6.1 | 0.00 | 0.00 | 0.00 | 65 | 1010.9 |
| 20260903023341 | 71 | 56 | 5.2 | 7.8 | 0.00 | 0.00 | 0.00 | 64 | 1011.2 |
| 20260903022836 | 71 | 68 | 4.3 | 5.2 | 0.00 | 0.00 | 0.00 | 63 | 1011.2 |
| 20260903022335 | 71 | 59 | 5.2 | 7.0 | 0.00 | 0.00 | 0.00 | 63 | 1010.8 |
| 20260903021834 | 71 | 57 | 5.2 | 6.1 | 0.00 | 0.00 | 0.00 | 63 | 1010.7 |
| 20260903021330 | 72 | 64 | 4.3 | 6.1 | 0.00 | 0.00 | 0.00 | 63 | 1010.9 |
| 20260903020830 | 72 | 73 | 6.1 | 7.0 | 0.00 | 0.00 | 0.00 | 61 | 1010.5 |
| 20260903020325 | 72 | 76 | 4.3 | 5.2 | 0.00 | 0.00 | 0.00 | 62 | 1010.6 |
| 20260903015820 | 72 | 65 | 5.2 | 6.1 | 0.00 | 0.00 | 0.00 | 62 | 1010.7 |
| 20260903015315 | 72 | 68 | 6.1 | 7.8 | 0.00 | 0.00 | 0.00 | 61 | 1010.3 |
| 20260903014810 | 73 | 74 | 4.3 | 7.0 | 0.00 | 0.00 | 0.00 | 61 | 1010.4 |
| 20260903014309 | 73 | 78 | 5.2 | 6.1 | 0.00 | 0.00 | 0.00 | 61 | 1010.4 |
| 20260903013805 | 73 | 79 | 4.3 | 5.2 | 0.00 | 0.00 | 0.00 | 61 | 1010.4 |
| 20260903013304 | 73 | 69 | 5.2 | 7.0 | 0.00 | 0.00 | 0.00 | 60 | 1010.6 |
| 20260903012803 | 73 | 70 | 5.2 | 7.0 | 0.00 | 0.00 | 0.00 | 60 | 1010.4 |
| 20260903012258 | 73 | 79 | 6.1 | 7.0 | 0.00 | 0.00 | 0.00 | 59 | 1010.5 |
| 20260903011757 | 74 | 68 | 7.0 | 7.8 | 0.00 | 0.00 | 0.00 | 58 | 1010.5 |
| 20260903011256 | 74 | 58 | 5.2 | 6.1 | 0.00 | 0.00 | 0.00 | 58 | 1010.7 |
| 20260903010752 | 75 | 83 | 4.3 | 5.2 | 0.00 | 0.00 | 0.00 | 57 | 1010.4 |
| 20260903010247 | 76 | 66 | 7.0 | 7.8 | 0.00 | 0.00 | 0.00 | 56 | 1010.5 |
| 20260903005746 | 76 | 77 | 4.3 | 5.2 | 0.00 | 0.00 | 0.00 | 55 | 1010.6 |
| 20260903005241 | 77 | 61 | 6.1 | 11.3 | 0.00 | 0.00 | 0.00 | 54 | 1010.7 |
| 20260903004736 | 77 | 85 | 6.1 | 7.8 | 0.00 | 0.00 | 0.00 | 54 | 1010.5 |
| 20260903004232 | 78 | 116 | 6.1 | 7.8 | 0.00 | 0.00 | 0.00 | 53 | 1010.6 |
| 20260903003727 | 78 | 68 | 11.3 | 13.9 | 0.00 | 0.00 | 0.00 | 53 | 1010.7 |
| 20260903003222 | 78 | 111 | 6.1 | 7.0 | 0.00 | 0.00 | 0.00 | 54 | 1010.6 |
| 20260903002711 | 78 | 97 | 6.1 | 7.8 | 0.00 | 0.00 | 0.00 | 53 | 1010.7 |
| 20260903002205 | 78 | 112 | 8.7 | 9.6 | 0.00 | 0.00 | 0.00 | 54 | 1010.8 |
| 20260903001700 | 78 | 106 | 7.8 | 8.7 | 0.00 | 0.00 | 0.00 | 54 | 1010.9 |
| 20260903001154 | 79 | 83 | 9.6 | 13.0 | 0.00 | 0.00 | 0.00 | 53 | 1010.8 |
| 20260903000650 | 79 | 86 | 7.0 | 8.7 | 0.00 | 0.00 | 0.00 | 53 | 1010.9 |
| 20260903000149 | 78 | 72 | 5.2 | 6.1 | 0.00 | 0.00 | 0.00 | 52 | 1010.8 |
| 20260902235648 | 78 | 71 | 7.0 | 9.6 | 0.00 | 0.00 | 0.00 | 52 | 1010.9 |
| 20260902235144 | 78 | 68 | 7.8 | 9.6 | 0.00 | 0.00 | 0.00 | 52 | 1010.9 |
| 20260902234637 | 78 | 67 | 9.6 | 13.0 | 0.00 | 0.00 | 0.00 | 53 | 1011.1 |
| 20260902234136 | 79 | 97 | 7.0 | 7.8 | 0.00 | 0.00 | 0.00 | 54 | 1011.1 |
| 20260902233632 | 79 | 62 | 6.1 | 7.0 | 0.00 | 0.00 | 0.00 | 55 | 1010.9 |
| 20260902233126 | 79 | 99 | 8.7 | 11.3 | 0.00 | 0.00 | 0.00 | 54 | 1010.9 |
| 20260902232625 | 80 | 101 | 11.3 | 14.8 | 0.00 | 0.00 | 0.00 | 53 | 1010.9 |
| 20260902232125 | 80 | 141 | 5.2 | 6.1 | 0.00 | 0.00 | 0.00 | 52 | 1010.9 |
| 20260902231624 | 80 | 60 | 6.1 | 8.7 | 0.00 | 0.00 | 0.00 | 52 | 1010.7 |
| 20260902231124 | 80 | 91 | 7.8 | 9.6 | 0.00 | 0.00 | 0.00 | 52 | 1010.8 |
| 20260902230620 | 80 | 75 | 7.0 | 7.8 | 0.00 | 0.00 | 0.00 | 53 | 1010.9 |
| 20260902230118 | 81 | 90 | 8.7 | 12.2 | 0.00 | 0.00 | 0.00 | 52 | 1011.1 |
| 20260902225614 | 81 | 143 | 11.3 | 12.2 | 0.00 | 0.00 | 0.00 | 52 | 1010.8 |
| 20260902225113 | 81 | 92 | 6.1 | 8.7 | 0.00 | 0.00 | 0.00 | 53 | 1011.1 |
| 20260902224612 | 81 | 81 | 11.3 | 15.6 | 0.00 | 0.00 | 0.00 | 51 | 1010.9 |
| 20260902224108 | 81 | 87 | 7.8 | 8.7 | 0.00 | 0.00 | 0.00 | 52 | 1010.9 |
| 20260902223604 | 82 | 80 | 11.3 | 14.8 | 0.00 | 0.00 | 0.00 | 51 | 1010.9 |
| 20260902223103 | 81 | 140 | 6.1 | 7.0 | 0.00 | 0.00 | 0.00 | 52 | 1010.8 |